| time (UTC) | temp F | wind direction | speed MPH | gust MPH | rain 1hr in | rain 24hr in | rain mn in | humidity % | barometer mb |
| 20260902161507 | 78 | 143 | 0.0 | 5.0 | 0.00 | 0.00 | 0.00 | 36 | 1007.4 |
| 20260902161006 | 78 | 143 | 0.0 | 5.0 | 0.00 | 0.00 | 0.00 | 38 | 1007.5 |
| 20260902160504 | 77 | 143 | 0.0 | 6.0 | 0.00 | 0.00 | 0.00 | 39 | 1007.5 |
| 20260902160002 | 77 | 133 | 1.0 | 6.0 | 0.00 | 0.00 | 0.00 | 37 | 1007.5 |
| 20260902155501 | 77 | 39 | 0.0 | 0.0 | 0.00 | 0.00 | 0.00 | 37 | 1007.6 |
| 20260902155059 | 77 | 39 | 0.0 | 0.0 | 0.00 | 0.00 | 0.00 | 38 | 1007.7 |
| 20260902154559 | 77 | 39 | 0.0 | 0.0 | 0.00 | 0.00 | 0.00 | 39 | 1007.8 |
| 20260902154057 | 76 | 16 | 0.0 | 0.0 | 0.00 | 0.00 | 0.00 | 38 | 1008.0 |
| 20260902153556 | 76 | 360 | 0.0 | 0.0 | 0.00 | 0.00 | 0.00 | 38 | 1007.9 |
| 20260902153105 | 76 | 356 | 0.0 | 0.0 | 0.00 | 0.00 | 0.00 | 39 | 1008.0 |
| 20260902152558 | 75 | 356 | 0.0 | 0.0 | 0.00 | 0.00 | 0.00 | 38 | 1008.0 |
| 20260902152050 | 75 | 356 | 0.0 | 0.0 | 0.00 | 0.00 | 0.00 | 38 | 1008.1 |
| 20260902151549 | 74 | 356 | 0.0 | 0.0 | 0.00 | 0.00 | 0.00 | 43 | 1008.1 |
| 20260902151047 | 74 | 356 | 0.0 | 0.0 | 0.00 | 0.00 | 0.00 | 44 | 1008.2 |
| 20260902150545 | 73 | 356 | 0.0 | 0.0 | 0.00 | 0.00 | 0.00 | 42 | 1008.2 |
| 20260902150044 | 73 | 356 | 0.0 | 0.0 | 0.00 | 0.00 | 0.00 | 44 | 1008.2 |
| 20260902145541 | 72 | 356 | 0.0 | 0.0 | 0.00 | 0.00 | 0.00 | 47 | 1008.3 |
| 20260902145043 | 71 | 356 | 0.0 | 0.0 | 0.00 | 0.00 | 0.00 | 47 | 1008.3 |
| 20260902144540 | 71 | 356 | 0.0 | 0.0 | 0.00 | 0.00 | 0.00 | 47 | 1008.2 |
| 20260902144038 | 70 | 356 | 0.0 | 0.0 | 0.00 | 0.00 | 0.00 | 50 | 1008.3 |
| 20260902143538 | 70 | 356 | 0.0 | 0.0 | 0.00 | 0.00 | 0.00 | 47 | 1008.2 |
| 20260902143034 | 69 | 356 | 0.0 | 0.0 | 0.00 | 0.00 | 0.00 | 49 | 1008.1 |
| 20260902142533 | 68 | 356 | 0.0 | 0.0 | 0.00 | 0.00 | 0.00 | 52 | 1008.1 |
| 20260902142031 | 67 | 356 | 0.0 | 0.0 | 0.00 | 0.00 | 0.00 | 53 | 1008.0 |
| 20260902141529 | 66 | 356 | 0.0 | 0.0 | 0.00 | 0.00 | 0.00 | 57 | 1008.1 |
| 20260902141028 | 65 | 356 | 0.0 | 0.0 | 0.00 | 0.00 | 0.00 | 55 | 1008.1 |
| 20260902140527 | 64 | 356 | 0.0 | 0.0 | 0.00 | 0.00 | 0.00 | 61 | 1008.1 |
| 20260902140026 | 62 | 356 | 0.0 | 0.0 | 0.00 | 0.00 | 0.00 | 66 | 1008.1 |
| 20260902135524 | 62 | 356 | 0.0 | 0.0 | 0.00 | 0.00 | 0.00 | 66 | 1008.2 |
| 20260902135023 | 60 | 356 | 0.0 | 0.0 | 0.00 | 0.00 | 0.00 | 72 | 1008.2 |
| 20260902134521 | 59 | 356 | 0.0 | 0.0 | 0.00 | 0.00 | 0.00 | 74 | 1008.3 |
| 20260902134022 | 57 | 356 | 0.0 | 0.0 | 0.00 | 0.00 | 0.00 | 79 | 1008.2 |
| 20260902133517 | 56 | 357 | 0.0 | 0.0 | 0.00 | 0.00 | 0.00 | 83 | 1008.2 |
| 20260902133016 | 55 | 148 | 0.0 | 0.0 | 0.00 | 0.00 | 0.00 | 84 | 1008.2 |
| 20260902132514 | 54 | 141 | 0.0 | 0.0 | 0.00 | 0.00 | 0.00 | 84 | 1008.1 |
| 20260902132013 | 53 | 141 | 0.0 | 0.0 | 0.00 | 0.00 | 0.00 | 84 | 1008.1 |
| 20260902131512 | 52 | 204 | 0.0 | 0.0 | 0.00 | 0.00 | 0.00 | 84 | 1008.1 |
| 20260902131012 | 52 | 204 | 0.0 | 0.0 | 0.00 | 0.00 | 0.00 | 83 | 1008.0 |
| 20260902130509 | 51 | 204 | 0.0 | 0.0 | 0.00 | 0.00 | 0.00 | 83 | 1007.8 |
| 20260902130009 | 51 | 204 | 0.0 | 0.0 | 0.00 | 0.00 | 0.00 | 82 | 1007.7 |
| 20260902125507 | 51 | 204 | 0.0 | 0.0 | 0.00 | 0.00 | 0.00 | 80 | 1007.7 |
| 20260902125005 | 51 | 204 | 0.0 | 0.0 | 0.00 | 0.00 | 0.00 | 80 | 1007.6 |
| 20260902124504 | 51 | 204 | 0.0 | 0.0 | 0.00 | 0.00 | 0.00 | 79 | 1007.5 |
| 20260902124004 | 52 | 204 | 0.0 | 0.0 | 0.00 | 0.00 | 0.00 | 79 | 1007.5 |
| 20260902123501 | 52 | 204 | 0.0 | 0.0 | 0.00 | 0.00 | 0.00 | 78 | 1007.6 |
| 20260902123107 | 52 | 204 | 0.0 | 0.0 | 0.00 | 0.00 | 0.00 | 79 | 1007.5 |
| 20260902122600 | 52 | 204 | 0.0 | 0.0 | 0.00 | 0.00 | 0.00 | 79 | 1007.2 |
| 20260902122059 | 52 | 204 | 0.0 | 0.0 | 0.00 | 0.00 | 0.00 | 78 | 1007.3 |
| 20260902121558 | 52 | 204 | 0.0 | 0.0 | 0.00 | 0.00 | 0.00 | 77 | 1007.2 |
| 20260902121059 | 52 | 204 | 0.0 | 0.0 | 0.00 | 0.00 | 0.00 | 78 | 1007.1 |
| 20260902120601 | 52 | 204 | 0.0 | 0.0 | 0.00 | 0.00 | 0.00 | 77 | 1007.1 |
| 20260902120057 | 53 | 204 | 0.0 | 0.0 | 0.00 | 0.00 | 0.00 | 77 | 1007.0 |
| 20260902115558 | 53 | 204 | 0.0 | 0.0 | 0.00 | 0.00 | 0.00 | 77 | 1007.0 |
| 20260902115057 | 53 | 204 | 0.0 | 0.0 | 0.00 | 0.00 | 0.00 | 77 | 1006.9 |
| 20260902114556 | 53 | 204 | 0.0 | 0.0 | 0.00 | 0.00 | 0.00 | 77 | 1006.9 |
| 20260902114059 | 53 | 204 | 0.0 | 0.0 | 0.00 | 0.00 | 0.00 | 78 | 1006.9 |
| 20260902113556 | 53 | 204 | 0.0 | 0.0 | 0.00 | 0.00 | 0.00 | 79 | 1006.8 |
| 20260902113056 | 53 | 204 | 0.0 | 0.0 | 0.00 | 0.00 | 0.00 | 79 | 1006.7 |
| 20260902112555 | 52 | 204 | 0.0 | 0.0 | 0.00 | 0.00 | 0.00 | 79 | 1006.8 |
| 20260902112055 | 52 | 204 | 0.0 | 0.0 | 0.00 | 0.00 | 0.00 | 80 | 1006.9 |
| 20260902111558 | 52 | 204 | 0.0 | 0.0 | 0.00 | 0.00 | 0.00 | 80 | 1006.9 |
| 20260902111055 | 52 | 204 | 0.0 | 0.0 | 0.00 | 0.00 | 0.00 | 80 | 1006.8 |
| 20260902110554 | 52 | 204 | 0.0 | 0.0 | 0.00 | 0.00 | 0.00 | 80 | 1006.7 |
| 20260902110100 | 52 | 204 | 0.0 | 0.0 | 0.00 | 0.00 | 0.00 | 79 | 1006.7 |
| 20260902105553 | 52 | 204 | 0.0 | 0.0 | 0.00 | 0.00 | 0.00 | 80 | 1006.6 |
| 20260902105053 | 52 | 204 | 0.0 | 0.0 | 0.00 | 0.00 | 0.00 | 79 | 1006.6 |
| 20260902104608 | 52 | 204 | 0.0 | 0.0 | 0.00 | 0.00 | 0.00 | 79 | 1006.7 |
| 20260902104052 | 53 | 204 | 0.0 | 0.0 | 0.00 | 0.00 | 0.00 | 78 | 1006.7 |
| 20260902103551 | 53 | 204 | 0.0 | 0.0 | 0.00 | 0.00 | 0.00 | 78 | 1006.6 |
| 20260902103106 | 53 | 204 | 0.0 | 0.0 | 0.00 | 0.00 | 0.00 | 78 | 1006.5 |
| 20260902102549 | 53 | 204 | 0.0 | 0.0 | 0.00 | 0.00 | 0.00 | 77 | 1006.5 |
| 20260902102049 | 53 | 204 | 0.0 | 0.0 | 0.00 | 0.00 | 0.00 | 77 | 1006.5 |
| 20260902101556 | 53 | 204 | 0.0 | 0.0 | 0.00 | 0.00 | 0.00 | 77 | 1006.5 |
| 20260902101047 | 53 | 204 | 0.0 | 0.0 | 0.00 | 0.00 | 0.00 | 77 | 1006.7 |
| 20260902100550 | 54 | 204 | 0.0 | 0.0 | 0.00 | 0.00 | 0.00 | 76 | 1006.7 |
| 20260902100047 | 54 | 204 | 0.0 | 0.0 | 0.00 | 0.00 | 0.00 | 77 | 1006.6 |
| 20260902095547 | 54 | 204 | 0.0 | 0.0 | 0.00 | 0.00 | 0.00 | 76 | 1006.7 |
| 20260902095045 | 54 | 204 | 0.0 | 0.0 | 0.00 | 0.00 | 0.00 | 76 | 1006.6 |
| 20260902094545 | 54 | 204 | 0.0 | 0.0 | 0.00 | 0.00 | 0.00 | 75 | 1006.6 |
| 20260902094043 | 55 | 204 | 0.0 | 0.0 | 0.00 | 0.00 | 0.00 | 75 | 1006.6 |
| 20260902093543 | 55 | 204 | 0.0 | 0.0 | 0.00 | 0.00 | 0.00 | 74 | 1006.6 |
| 20260902093042 | 55 | 204 | 0.0 | 0.0 | 0.00 | 0.00 | 0.00 | 73 | 1006.6 |
| 20260902092539 | 55 | 204 | 0.0 | 0.0 | 0.00 | 0.00 | 0.00 | 73 | 1006.5 |
| 20260902092038 | 56 | 204 | 0.0 | 0.0 | 0.00 | 0.00 | 0.00 | 72 | 1006.5 |
| 20260902091537 | 56 | 204 | 0.0 | 0.0 | 0.00 | 0.00 | 0.00 | 71 | 1006.4 |
| 20260902091037 | 56 | 204 | 0.0 | 0.0 | 0.00 | 0.00 | 0.00 | 71 | 1006.4 |
| 20260902090536 | 56 | 204 | 0.0 | 0.0 | 0.00 | 0.00 | 0.00 | 71 | 1006.4 |
| 20260902072026 | 62 | 204 | 0.0 | 0.0 | 0.00 | 0.00 | 0.00 | 62 | 1006.5 |
| 20260902071525 | 62 | 204 | 0.0 | 0.0 | 0.00 | 0.00 | 0.00 | 61 | 1006.5 |
| 20260902071024 | 63 | 204 | 0.0 | 0.0 | 0.00 | 0.00 | 0.00 | 61 | 1006.4 |
| 20260902070523 | 63 | 204 | 0.0 | 0.0 | 0.00 | 0.00 | 0.00 | 60 | 1006.4 |
| 20260902070024 | 63 | 204 | 0.0 | 0.0 | 0.00 | 0.00 | 0.00 | 59 | 1006.4 |
| 20260902065519 | 64 | 204 | 0.0 | 0.0 | 0.00 | 0.00 | 0.00 | 59 | 1006.5 |
| 20260902065022 | 64 | 204 | 0.0 | 0.0 | 0.00 | 0.00 | 0.00 | 58 | 1006.5 |
| 20260902064518 | 65 | 204 | 0.0 | 0.0 | 0.00 | 0.00 | 0.00 | 58 | 1006.5 |
| 20260902064016 | 65 | 204 | 0.0 | 0.0 | 0.00 | 0.00 | 0.00 | 57 | 1006.5 |
| 20260902063515 | 65 | 204 | 0.0 | 0.0 | 0.00 | 0.00 | 0.00 | 57 | 1006.4 |
| 20260902063037 | 65 | 204 | 0.0 | 0.0 | 0.00 | 0.00 | 0.00 | 56 | 1006.5 |
| 20260902062516 | 66 | 204 | 0.0 | 0.0 | 0.00 | 0.00 | 0.00 | 56 | 1006.5 |
| 20260902062013 | 66 | 204 | 0.0 | 0.0 | 0.00 | 0.00 | 0.00 | 57 | 1006.4 |
| 20260902061513 | 66 | 204 | 0.0 | 0.0 | 0.00 | 0.00 | 0.00 | 57 | 1006.3 |
| 20260902061013 | 66 | 204 | 0.0 | 0.0 | 0.00 | 0.00 | 0.00 | 58 | 1006.3 |
| 20260902060512 | 66 | 204 | 0.0 | 2.0 | 0.00 | 0.00 | 0.00 | 59 | 1006.3 |
| 20260902060010 | 66 | 203 | 0.0 | 2.0 | 0.00 | 0.00 | 0.00 | 59 | 1006.3 |
| 20260902055510 | 66 | 195 | 0.0 | 0.0 | 0.00 | 0.00 | 0.00 | 59 | 1006.2 |
| 20260902055010 | 67 | 195 | 0.0 | 2.0 | 0.00 | 0.00 | 0.00 | 60 | 1006.2 |
| 20260902054513 | 67 | 196 | 0.0 | 2.0 | 0.00 | 0.00 | 0.00 | 59 | 1006.2 |
| 20260902054010 | 67 | 183 | 0.0 | 0.0 | 0.00 | 0.00 | 0.00 | 59 | 1006.2 |
| 20260902053510 | 67 | 198 | 0.0 | 4.0 | 0.00 | 0.00 | 0.00 | 59 | 1006.3 |
| 20260902053010 | 67 | 159 | 0.0 | 4.0 | 0.00 | 0.00 | 0.00 | 58 | 1006.2 |
| 20260902052509 | 67 | 195 | 0.0 | 4.0 | 0.00 | 0.00 | 0.00 | 58 | 1006.2 |
| 20260902052009 | 67 | 168 | 0.0 | 6.0 | 0.00 | 0.00 | 0.00 | 57 | 1006.3 |
| 20260902051509 | 68 | 204 | 0.0 | 6.0 | 0.00 | 0.00 | 0.00 | 57 | 1006.4 |
| 20260902051009 | 68 | 189 | 0.0 | 4.0 | 0.00 | 0.00 | 0.00 | 56 | 1006.4 |
| 20260902050511 | 68 | 166 | 0.0 | 4.0 | 0.00 | 0.00 | 0.00 | 55 | 1006.3 |
| 20260902050011 | 68 | 175 | 0.0 | 1.0 | 0.00 | 0.00 | 0.00 | 55 | 1006.4 |
| 20260902045508 | 68 | 173 | 0.0 | 4.0 | 0.00 | 0.00 | 0.00 | 55 | 1006.4 |
| 20260902045008 | 68 | 172 | 0.0 | 4.0 | 0.00 | 0.00 | 0.00 | 54 | 1006.4 |
| 20260902044508 | 68 | 199 | 0.0 | 6.0 | 0.00 | 0.00 | 0.00 | 54 | 1006.4 |
| 20260902044008 | 68 | 162 | 1.0 | 6.0 | 0.00 | 0.00 | 0.00 | 53 | 1006.5 |
| 20260902043507 | 68 | 170 | 0.0 | 4.0 | 0.00 | 0.00 | 0.00 | 53 | 1006.6 |
| 20260902043007 | 68 | 187 | 0.0 | 4.0 | 0.00 | 0.00 | 0.00 | 53 | 1006.6 |
| 20260902042508 | 69 | 166 | 0.0 | 4.0 | 0.00 | 0.00 | 0.00 | 53 | 1006.7 |
| 20260902042007 | 69 | 164 | 0.0 | 3.0 | 0.00 | 0.00 | 0.00 | 53 | 1006.8 |
| 20260902041506 | 69 | 162 | 0.0 | 3.0 | 0.00 | 0.00 | 0.00 | 52 | 1006.8 |
| 20260902041006 | 69 | 158 | 0.0 | 2.0 | 0.00 | 0.00 | 0.00 | 52 | 1006.8 |
| 20260902040508 | 69 | 198 | 0.0 | 0.0 | 0.00 | 0.00 | 0.00 | 52 | 1006.8 |
| 20260902040006 | 69 | 168 | 0.0 | 0.0 | 0.00 | 0.00 | 0.00 | 52 | 1006.8 |
| 20260902035506 | 69 | 168 | 0.0 | 8.0 | 0.00 | 0.00 | 0.00 | 52 | 1006.9 |
| 20260902035006 | 70 | 157 | 0.0 | 8.0 | 0.00 | 0.00 | 0.00 | 52 | 1006.7 |
| 20260902034506 | 70 | 156 | 0.0 | 9.0 | 0.00 | 0.00 | 0.00 | 52 | 1006.8 |
| 20260902034005 | 70 | 156 | 0.0 | 9.0 | 0.00 | 0.00 | 0.00 | 52 | 1006.8 |
| 20260902033506 | 70 | 155 | 2.0 | 8.0 | 0.00 | 0.00 | 0.00 | 51 | 1006.8 |
| 20260902033005 | 71 | 155 | 0.0 | 0.0 | 0.00 | 0.00 | 0.00 | 50 | 1006.7 |
| 20260902032508 | 71 | 156 | 0.0 | 0.0 | 0.00 | 0.00 | 0.00 | 50 | 1006.6 |
| 20260902032005 | 71 | 156 | 0.0 | 0.0 | 0.00 | 0.00 | 0.00 | 49 | 1006.6 |
| 20260902031522 | 72 | 156 | 0.0 | 0.0 | 0.00 | 0.00 | 0.00 | 49 | 1006.6 |
| 20260902031005 | 72 | 156 | 0.0 | 8.0 | 0.00 | 0.00 | 0.00 | 49 | 1006.6 |
| 20260902030510 | 72 | 156 | 1.0 | 15.0 | 0.00 | 0.00 | 0.00 | 49 | 1006.7 |
| 20260902030004 | 72 | 157 | 2.0 | 15.0 | 0.00 | 0.00 | 0.00 | 50 | 1006.6 |
| 20260902025504 | 71 | 157 | 3.0 | 12.0 | 0.00 | 0.01 | 0.00 | 50 | 1006.4 |
| 20260902025004 | 71 | 153 | 3.0 | 13.0 | 0.00 | 0.01 | 0.00 | 50 | 1006.4 |
| 20260902024503 | 70 | 152 | 4.0 | 13.0 | 0.00 | 0.01 | 0.00 | 51 | 1006.2 |
| 20260902024007 | 70 | 145 | 0.0 | 9.0 | 0.00 | 0.01 | 0.00 | 52 | 1006.0 |
| 20260902023503 | 70 | 135 | 3.0 | 9.0 | 0.00 | 0.01 | 0.00 | 51 | 1005.8 |
| 20260902023013 | 70 | 135 | 2.0 | 9.0 | 0.00 | 0.01 | 0.00 | 52 | 1005.8 |
| 20260902022503 | 70 | 135 | 0.0 | 0.0 | 0.00 | 0.01 | 0.00 | 52 | 1005.8 |
| 20260902022005 | 71 | 136 | 0.0 | 0.0 | 0.00 | 0.01 | 0.00 | 51 | 1005.8 |
| 20260902021505 | 71 | 135 | 0.0 | 0.0 | 0.00 | 0.01 | 0.00 | 51 | 1005.7 |
| 20260902021002 | 71 | 136 | 0.0 | 0.0 | 0.00 | 0.01 | 0.00 | 51 | 1005.7 |
| 20260902020503 | 72 | 135 | 0.0 | 0.0 | 0.00 | 0.01 | 0.00 | 50 | 1005.6 |
| 20260902020001 | 72 | 136 | 0.0 | 0.0 | 0.00 | 0.01 | 0.00 | 49 | 1005.6 |
| 20260902015501 | 73 | 136 | 0.0 | 0.0 | 0.00 | 0.01 | 0.00 | 49 | 1005.6 |
| 20260902015002 | 73 | 136 | 0.0 | 0.0 | 0.00 | 0.01 | 0.00 | 48 | 1005.5 |
| 20260902014502 | 74 | 135 | 0.0 | 0.0 | 0.00 | 0.01 | 0.00 | 47 | 1005.5 |
| 20260902014001 | 74 | 136 | 0.0 | 0.0 | 0.00 | 0.01 | 0.00 | 47 | 1005.6 |
| 20260902013501 | 74 | 135 | 0.0 | 0.0 | 0.00 | 0.01 | 0.00 | 46 | 1005.5 |
| 20260902013001 | 75 | 136 | 0.0 | 0.0 | 0.00 | 0.01 | 0.00 | 45 | 1005.5 |
| 20260902012501 | 75 | 135 | 0.0 | 2.0 | 0.00 | 0.01 | 0.00 | 44 | 1005.5 |
| 20260902012100 | 75 | 136 | 0.0 | 2.0 | 0.00 | 0.01 | 0.00 | 44 | 1005.5 |
| 20260902011501 | 75 | 136 | 0.0 | 0.0 | 0.00 | 0.01 | 0.00 | 42 | 1005.5 |
| 20260902011101 | 76 | 136 | 0.0 | 4.0 | 0.00 | 0.01 | 0.00 | 42 | 1005.5 |
| 20260902011003 | 76 | 136 | 0.0 | 4.0 | 0.00 | 0.01 | 0.00 | 41 | 1005.5 |
| 20260902010605 | 76 | 136 | 0.0 | 6.0 | 0.00 | 0.01 | 0.00 | 41 | 1005.6 |
| 20260902010105 | 76 | 135 | 1.0 | 6.0 | 0.00 | 0.01 | 0.00 | 40 | 1005.5 |
| 20260902005600 | 77 | 136 | 0.0 | 6.0 | 0.00 | 0.01 | 0.00 | 38 | 1005.4 |
| 20260902005100 | 77 | 136 | 0.0 | 6.0 | 0.00 | 0.01 | 0.00 | 38 | 1005.4 |
| 20260902004559 | 77 | 136 | 0.0 | 0.0 | 0.00 | 0.01 | 0.00 | 38 | 1005.4 |
| 20260902004059 | 77 | 136 | 0.0 | 4.0 | 0.00 | 0.01 | 0.00 | 37 | 1005.4 |
| 20260902003558 | 77 | 136 | 0.0 | 4.0 | 0.00 | 0.01 | 0.00 | 38 | 1005.5 |
| 20260902003059 | 78 | 136 | 0.0 | 6.0 | 0.00 | 0.01 | 0.00 | 37 | 1005.4 |
| 20260902002600 | 78 | 135 | 0.0 | 6.0 | 0.00 | 0.01 | 0.00 | 37 | 1005.4 |
| 20260902002057 | 78 | 135 | 1.0 | 9.0 | 0.00 | 0.01 | 0.00 | 37 | 1005.4 |
| 20260902001603 | 78 | 135 | 1.0 | 13.0 | 0.00 | 0.01 | 0.00 | 36 | 1005.4 |
| 20260902001058 | 78 | 135 | 5.0 | 13.0 | 0.00 | 0.01 | 0.00 | 36 | 1005.4 |
| 20260902000556 | 78 | 133 | 1.0 | 10.0 | 0.00 | 0.01 | 0.00 | 36 | 1005.4 |
| 20260902000056 | 79 | 133 | 1.0 | 6.0 | 0.00 | 0.01 | 0.00 | 36 | 1005.4 |
| 20260901235557 | 79 | 133 | 0.0 | 8.0 | 0.00 | 0.01 | 0.00 | 35 | 1005.4 |
| 20260901235056 | 79 | 133 | 1.0 | 8.0 | 0.00 | 0.01 | 0.00 | 34 | 1005.4 |
| 20260901234604 | 80 | 129 | 0.0 | 6.0 | 0.00 | 0.01 | 0.00 | 34 | 1005.3 |
| 20260901234057 | 80 | 52 | 1.0 | 5.0 | 0.00 | 0.01 | 0.00 | 33 | 1005.3 |
| 20260901233555 | 80 | 180 | 0.0 | 5.0 | 0.00 | 0.01 | 0.00 | 32 | 1005.2 |
| 20260901233054 | 80 | 185 | 0.0 | 5.0 | 0.00 | 0.01 | 0.00 | 30 | 1005.4 |
| 20260901232554 | 81 | 185 | 0.0 | 2.0 | 0.00 | 0.01 | 0.00 | 32 | 1005.4 |
| 20260901232057 | 81 | 183 | 0.0 | 1.0 | 0.00 | 0.01 | 0.00 | 31 | 1005.4 |
| 20260901231558 | 81 | 183 | 0.0 | 3.0 | 0.00 | 0.01 | 0.00 | 30 | 1005.3 |
| 20260901231053 | 81 | 183 | 0.0 | 3.0 | 0.00 | 0.01 | 0.00 | 30 | 1005.4 |
| 20260901230553 | 81 | 179 | 0.0 | 0.0 | 0.00 | 0.01 | 0.00 | 31 | 1005.4 |
| 20260901230105 | 81 | 178 | 0.0 | 0.0 | 0.00 | 0.01 | 0.00 | 31 | 1005.3 |
| 20260901225553 | 81 | 178 | 0.0 | 2.0 | 0.00 | 0.01 | 0.00 | 30 | 1005.4 |
| 20260901225052 | 81 | 162 | 0.0 | 1.0 | 0.00 | 0.01 | 0.00 | 30 | 1005.4 |
| 20260901224553 | 81 | 157 | 0.0 | 5.0 | 0.00 | 0.01 | 0.00 | 31 | 1005.4 |
| 20260901224053 | 81 | 157 | 0.0 | 5.0 | 0.00 | 0.01 | 0.00 | 31 | 1005.5 |
| 20260901223554 | 81 | 159 | 0.0 | 6.0 | 0.00 | 0.01 | 0.00 | 30 | 1005.5 |
| 20260901223050 | 81 | 161 | 2.0 | 6.0 | 0.00 | 0.01 | 0.00 | 30 | 1005.5 |
| 20260901222650 | 81 | 162 | 0.0 | 5.0 | 0.00 | 0.01 | 0.00 | 31 | 1005.6 |
| 20260901222050 | 82 | 162 | 0.0 | 8.0 | 0.00 | 0.01 | 0.00 | 30 | 1005.6 |
| 20260901221605 | 81 | 219 | 1.0 | 6.0 | 0.00 | 0.01 | 0.00 | 31 | 1005.5 |
| 20260901221049 | 81 | 206 | 0.0 | 2.0 | 0.00 | 0.01 | 0.00 | 33 | 1005.6 |
| 20260901221018 | 81 | 206 | 0.0 | 2.0 | 0.00 | 0.01 | 0.00 | 32 | 1005.6 |
| 20260901220548 | 81 | 205 | 0.0 | 0.0 | 0.00 | 0.01 | 0.00 | 33 | 1005.8 |
| 20260901220045 | 81 | 205 | 0.0 | 2.0 | 0.00 | 0.01 | 0.00 | 31 | 1005.9 |
| 20260901215545 | 81 | 205 | 0.0 | 2.0 | 0.00 | 0.01 | 0.00 | 30 | 1006.0 |
| 20260901215045 | 81 | 206 | 0.0 | 0.0 | 0.00 | 0.01 | 0.00 | 33 | 1006.0 |
| 20260901214544 | 81 | 206 | 0.0 | 0.0 | 0.00 | 0.01 | 0.00 | 31 | 1006.1 |
| 20260901214044 | 81 | 206 | 0.0 | 8.0 | 0.00 | 0.01 | 0.00 | 31 | 1006.2 |
| 20260901213546 | 82 | 206 | 0.0 | 8.0 | 0.00 | 0.01 | 0.00 | 30 | 1006.2 |
| 20260901213046 | 82 | 207 | 2.0 | 8.0 | 0.00 | 0.01 | 0.00 | 28 | 1006.2 |
| 20260901212543 | 82 | 214 | 0.0 | 0.0 | 0.00 | 0.01 | 0.00 | 29 | 1006.2 |
| 20260901212042 | 83 | 214 | 0.0 | 0.0 | 0.00 | 0.01 | 0.00 | 30 | 1006.3 |
| 20260901211543 | 83 | 214 | 0.0 | 0.0 | 0.00 | 0.01 | 0.00 | 29 | 1006.4 |
| 20260901211041 | 83 | 214 | 0.0 | 7.0 | 0.00 | 0.01 | 0.00 | 28 | 1006.4 |
| 20260901210545 | 84 | 214 | 0.0 | 7.0 | 0.00 | 0.01 | 0.00 | 27 | 1006.4 |
| 20260901210040 | 84 | 214 | 0.0 | 0.0 | 0.00 | 0.01 | 0.00 | 27 | 1006.5 |
| 20260901205539 | 85 | 214 | 0.0 | 0.0 | 0.00 | 0.01 | 0.00 | 28 | 1006.5 |
| 20260901205039 | 85 | 214 | 0.0 | 0.0 | 0.00 | 0.01 | 0.00 | 26 | 1006.5 |
| 20260901204541 | 85 | 214 | 0.0 | 0.0 | 0.00 | 0.01 | 0.00 | 27 | 1006.6 |
| 20260901204038 | 85 | 214 | 0.0 | 0.0 | 0.00 | 0.01 | 0.00 | 27 | 1006.7 |
| 20260901203541 | 85 | 214 | 0.0 | 3.0 | 0.00 | 0.01 | 0.00 | 27 | 1006.8 |
| 20260901203044 | 85 | 214 | 0.0 | 3.0 | 0.00 | 0.01 | 0.00 | 29 | 1006.8 |
| 20260901202538 | 84 | 220 | 0.0 | 1.0 | 0.00 | 0.01 | 0.00 | 26 | 1006.8 |
| 20260901202040 | 84 | 220 | 0.0 | 2.0 | 0.00 | 0.01 | 0.00 | 27 | 1006.8 |
| 20260901201537 | 85 | 220 | 0.0 | 7.0 | 0.00 | 0.01 | 0.00 | 26 | 1006.9 |
| 20260901201037 | 85 | 178 | 0.0 | 11.0 | 0.00 | 0.01 | 0.00 | 27 | 1006.9 |
| 20260901200535 | 85 | 173 | 1.0 | 11.0 | 0.00 | 0.01 | 0.00 | 27 | 1007.0 |
| 20260901200034 | 85 | 201 | 0.0 | 0.0 | 0.00 | 0.01 | 0.00 | 28 | 1007.0 |
| 20260901195533 | 85 | 201 | 0.0 | 1.0 | 0.00 | 0.01 | 0.00 | 33 | 1007.0 |
| 20260901195034 | 84 | 201 | 0.0 | 1.0 | 0.00 | 0.01 | 0.00 | 28 | 1007.1 |
| 20260901194531 | 84 | 201 | 0.0 | 0.0 | 0.00 | 0.01 | 0.00 | 26 | 1007.2 |
| 20260901194033 | 84 | 201 | 0.0 | 4.0 | 0.00 | 0.01 | 0.00 | 28 | 1007.2 |
| 20260901193530 | 84 | 211 | 0.0 | 4.0 | 0.00 | 0.01 | 0.00 | 29 | 1007.3 |
| 20260901193029 | 84 | 222 | 0.0 | 4.0 | 0.00 | 0.01 | 0.00 | 31 | 1007.3 |
| 20260901192530 | 83 | 222 | 0.0 | 0.0 | 0.00 | 0.01 | 0.00 | 30 | 1007.3 |
| 20260901192027 | 83 | 222 | 0.0 | 7.0 | 0.00 | 0.01 | 0.00 | 32 | 1007.5 |
| 20260901191530 | 83 | 223 | 2.0 | 7.0 | 0.00 | 0.01 | 0.00 | 31 | 1007.5 |
| 20260901191026 | 83 | 227 | 0.0 | 0.0 | 0.00 | 0.01 | 0.00 | 30 | 1007.5 |
| 20260901190526 | 83 | 228 | 0.0 | 0.0 | 0.00 | 0.01 | 0.00 | 31 | 1007.6 |
| 20260901190027 | 83 | 228 | 0.0 | 0.0 | 0.00 | 0.01 | 0.00 | 30 | 1007.6 |
| 20260901185525 | 83 | 230 | 0.0 | 0.0 | 0.00 | 0.01 | 0.00 | 32 | 1007.7 |
| 20260901185024 | 83 | 231 | 0.0 | 8.0 | 0.00 | 0.01 | 0.00 | 33 | 1007.8 |
| 20260901184523 | 82 | 231 | 0.0 | 8.0 | 0.00 | 0.01 | 0.00 | 35 | 1007.9 |
| 20260901184023 | 82 | 229 | 0.0 | 0.0 | 0.00 | 0.01 | 0.00 | 34 | 1008.0 |
| 20260901183521 | 82 | 229 | 0.0 | 0.0 | 0.00 | 0.01 | 0.00 | 32 | 1008.0 |
| 20260901183032 | 81 | 229 | 0.0 | 0.0 | 0.00 | 0.01 | 0.00 | 35 | 1008.1 |
| 20260901182519 | 81 | 229 | 0.0 | 7.0 | 0.00 | 0.01 | 0.00 | 32 | 1008.2 |
| 20260901182018 | 81 | 229 | 0.0 | 7.0 | 0.00 | 0.01 | 0.00 | 37 | 1008.3 |
| 20260901181516 | 80 | 229 | 0.0 | 6.0 | 0.00 | 0.01 | 0.00 | 35 | 1008.4 |
| 20260901181015 | 80 | 229 | 0.0 | 6.0 | 0.00 | 0.01 | 0.00 | 36 | 1008.5 |
| 20260901180513 | 79 | 229 | 0.0 | 0.0 | 0.00 | 0.01 | 0.00 | 33 | 1008.5 |
| 20260901180018 | 79 | 229 | 0.0 | 0.0 | 0.00 | 0.01 | 0.00 | 40 | 1008.6 |
| 20260901175510 | 78 | 229 | 0.0 | 0.0 | 0.00 | 0.01 | 0.00 | 40 | 1008.6 |
| 20260901175009 | 78 | 229 | 0.0 | 0.0 | 0.00 | 0.01 | 0.00 | 40 | 1008.7 |
| 20260901174508 | 77 | 229 | 0.0 | 0.0 | 0.00 | 0.01 | 0.00 | 41 | 1008.7 |
| 20260901174008 | 77 | 235 | 0.0 | 0.0 | 0.00 | 0.01 | 0.00 | 42 | 1008.7 |
| 20260901173506 | 76 | 235 | 0.0 | 0.0 | 0.00 | 0.01 | 0.00 | 45 | 1008.8 |
| 20260901173002 | 75 | 237 | 0.0 | 0.0 | 0.00 | 0.01 | 0.00 | 49 | 1008.9 |
| 20260901172502 | 74 | 237 | 0.0 | 0.0 | 0.00 | 0.01 | 0.00 | 48 | 1008.9 |
| 20260901172100 | 73 | 237 | 0.0 | 0.0 | 0.00 | 0.01 | 0.00 | 54 | 1009.0 |
| 20260901171602 | 73 | 238 | 0.0 | 0.0 | 0.00 | 0.01 | 0.00 | 51 | 1009.1 |
| 20260901171058 | 72 | 239 | 0.0 | 0.0 | 0.00 | 0.01 | 0.00 | 52 | 1009.2 |
| 20260901170556 | 71 | 239 | 0.0 | 0.0 | 0.00 | 0.01 | 0.00 | 55 | 1009.2 |
| 20260901170100 | 70 | 239 | 0.0 | 0.0 | 0.00 | 0.01 | 0.00 | 56 | 1009.2 |
| 20260901165553 | 70 | 239 | 0.0 | 0.0 | 0.00 | 0.01 | 0.00 | 54 | 1009.1 |
| 20260901165055 | 70 | 239 | 0.0 | 0.0 | 0.00 | 0.01 | 0.00 | 55 | 1009.2 |
| 20260901164551 | 69 | 239 | 0.0 | 0.0 | 0.00 | 0.01 | 0.00 | 57 | 1009.2 |
| 20260901164050 | 69 | 239 | 0.0 | 0.0 | 0.00 | 0.01 | 0.00 | 59 | 1009.1 |
| 20260901163549 | 69 | 239 | 0.0 | 0.0 | 0.00 | 0.01 | 0.00 | 58 | 1009.1 |
| 20260901163107 | 68 | 239 | 0.0 | 0.0 | 0.00 | 0.01 | 0.00 | 62 | 1009.1 |
| 20260901162547 | 68 | 239 | 0.0 | 0.0 | 0.00 | 0.01 | 0.00 | 61 | 1009.1 |
| 20260901162044 | 67 | 239 | 0.0 | 0.0 | 0.00 | 0.01 | 0.00 | 64 | 1009.1 |